CZ-6A DEB

Satellite information

Favourite Embed

Satellite Type and Status

DEBRISIN ORBIT

Key statistics

Satellite CZ-6A DEB at a glance.

Uptime

1128

Days in orbit

Revolutions

≈ 14.1

Per day

Orbit

SSO

Sun Synchronous Orbit

Inclination

98.9

Latest

Satellite identification and parameters

Extended collection of information and parameters for CZ-6A DEB.

Object identification

Identified? True

Debris? True

Object name: CZ-6A DEB

International designator: 2022-151AHX

Object number (NORAD): 58429

Object ID (CCSDS): 58429

Country: PEOPLES REPUBLIC OF CHINA (PRC)

Current information (Y/N): Y

RCS size: SMALL

Orbital parameters

Period: 102.276 minutes

Inclination: 98.867 deg

SMA: 7244.525 km

Apoapsis: 927.008 km

Periapsis: 805.773 km

RAAN: 334.1197 deg

Eccentricy: 0.00836734

Argument of periapsis: 186.1394 deg

Mean anomaly: 173.8758 deg

Mean motion: 14.07952035 rev/day

Mean motion (dot): 0.00003541 rev/day2

B* drag term: 0.0020428926 1/REarth

Two-line elements (TLE)

Creation date: Dec. 10, 2025, 10:40 a.m.

Reference frame: TEME

Reference center: EARTH

Epoch: Dec. 10, 2025, 4:33 a.m. UTC

TLE line 0: 0 CZ-6A DEB

TLE line 1: 1 58429U 22151AHX 25344.19021738 .00003541 00000-0 20429-2 0 9990

TLE line 2: 2 58429 98.8670 334.1197 0083673 186.1394 173.8758 14.07952035137696

Live tracking on map

Real-time ground track for satellite CZ-6A DEB.

In-orbit conjunctions

A list of the most updated potential collisions computed for object CZ-6A DEB.

Target Orbit TCA Probability of collision Miss distance Type
SL-3 R/B LEO 2025-12-02 17:01:14 0.0001592446 573.0 (m) ROCKET BODY
COSMOS 2278 LEO 2025-03-08 22:04:46 0.0004860901 159.0 (m) PAYLOAD

Associated space launch

Chinese satellite reported for atmospheric/ocean/environmental/spatial parameter research purposes, details TBD.

CZ-6A DEB was lifted into orbit during the mission ‘Long March 6A | Yunhai 3’, on board a Long March 6A space rocket.

The launch took place on Nov. 11, 2022, 10:52 p.m. from Launch Complex 9A.

For more information about the launch, click the button.

Launch to space Long March 6A | Yunhai 3
Long March 6A | Yunhai 3

Agency: N/A

Status: Launch Successful

Launch date: Nov. 11, 2022, 10:52 p.m. UTC

Rocket: Long March 6A

Launch pad: Launch Complex 9A

Location: Taiyuan Satellite Launch Center, People's Republic of China

...

Latest news about this satellite

There are no fresh news available about this satellite. Check back as we update our databases every day.


Newsletter sign-up

Weekly statistics, charts and insights to help you stay on top of the space industry.